Pompano Beach, FL

5:40 AM EST on December 12, 2017 (GMT -0500)
Pompano Beach

Weather History for KPMP - July, 2014

Change the Weather History Date:

Wednesday, July 2, 2014

  Actual Average Record
Temperature  
Mean Temperature 84 °F -  
Max Temperature 93 °F 90 °F 95 °F (1982)
Min Temperature 75 °F 73 °F 67 °F (1950)
Cooling Degree Days 19    
Growing Degree Days 34 (Base 50)    
Moisture  
Dew Point 74 °F    
Average Humidity 80    
Maximum Humidity 91    
Minimum Humidity 51    
Precipitation  
Precipitation 0.23 in - - ()
Sea Level Pressure  
Sea Level Pressure 29.95 in    
Wind  
Wind Speed 10 mph (SW)    
Max Wind Speed 14 mph    
Max Gust Speed -    
Visibility 8 miles    
Events Rain , Thunderstorm    
Averages and records for this station are not official NWS values.
T = Trace of Precipitation, MM = Missing Value Source: NWS Daily Summary

Daily Weather History Graph

Daily Weather History Graph

Search for Another Location

Airport or City:

Trip Planner

Search our weather history database for the weather conditions in past years. The results will help you decide how hot, cold, wet, or windy it might be!

Date:

Astronomy

Jul. 02, 2014 Rise Set
Actual Time 6:31 AM EDT 8:16 PM EDT
Civil Twilight 6:05 AM EDT 8:43 PM EDT
Nautical Twilight 5:34 AM EDT 9:14 PM EDT
Astronomical Twilight 5:01 AM EDT 9:47 PM EDT
Moon 11:04 AM EDT (7/2) 11:41 PM EDT (7/2)
Length of Visible Light 14h 37m
Length of Day
13h 45m
Waxing Crescent, 24% of the Moon is Illuminated
Jul 2
Waxing Crescent
Jul 5
First Quarter
Jul 12
Full
Jul 18
Last Quarter
Jul 26
New

Hourly Weather History & Observations

Time (EDT) Temp. Heat Index Dew Point Humidity Pressure Visibility Wind Dir Wind Speed Gust Speed Precip Events Conditions
12:53 AM 79.0 °F - 72.0 °F 79% 29.90 in 10.0 mi North - - N/A   Clear
1:53 AM 78.1 °F - 72.0 °F 81% 29.90 in 10.0 mi North - - N/A   Scattered Clouds
2:53 AM 78.1 °F - 73.0 °F 84% 29.89 in 10.0 mi North - - N/A   Clear
3:53 AM 78.1 °F - 73.9 °F 87% 29.87 in 10.0 mi North - - N/A   Clear
4:53 AM 78.1 °F - 73.9 °F 87% 29.88 in 10.0 mi North - - N/A   Clear
5:53 AM 78.1 °F - 73.9 °F 87% 29.91 in 10.0 mi North - - N/A   Clear
6:53 AM 78.1 °F - 73.9 °F 87% 29.92 in 9.0 mi North - - N/A   Clear
7:53 AM 80.1 °F 85.1 °F 75.0 °F 85% 29.93 in 9.0 mi WSW 11.5 mph - N/A   Clear
8:53 AM 82.0 °F 88.6 °F 75.0 °F 79% 29.95 in 10.0 mi West 11.5 mph - N/A   Clear
9:53 AM 86.0 °F 95.1 °F 75.0 °F 70% 29.95 in 10.0 mi West 13.8 mph - N/A   Clear
10:53 AM 89.1 °F 100.2 °F 75.9 °F 65% 29.95 in 10.0 mi WSW 13.8 mph - N/A   Clear
11:53 AM 91.0 °F 101.6 °F 75.0 °F 59% 29.94 in 10.0 mi West 13.8 mph - N/A   Scattered Clouds
12:53 PM 93.9 °F 103.4 °F 73.0 °F 51% 29.93 in 10.0 mi SW 13.8 mph - N/A   Scattered Clouds
1:00 PM 93.0 °F 101.9 °F 73.0 °F 52% 29.92 in 10.0 mi North - - N/A Thunderstorm Scattered Clouds
1:15 PM 93.0 °F 104.6 °F 75.0 °F 56% 29.94 in - North - - N/A Thunderstorm Thunderstorm
1:53 PM 75.9 °F - 72.0 °F 87% 30.00 in 2.5 mi North - - 0.05 in Rain , Thunderstorm Thunderstorms and Rain
2:06 PM 75.0 °F - 72.0 °F 90% 29.98 in 1.8 mi North - - 0.06 in Rain , Thunderstorm Thunderstorms and Rain
2:15 PM 75.9 °F - 73.0 °F 91% 29.98 in 3.0 mi North - - 0.07 in Rain , Thunderstorm Light Thunderstorms and Rain
2:30 PM 77.0 °F - 73.9 °F 90% 29.99 in 9.0 mi North - - 0.07 in   Mostly Cloudy
2:38 PM 77.0 °F - 73.0 °F 88% 29.99 in - SSW 5.8 mph - 0.07 in Thunderstorm Thunderstorm
2:53 PM 78.1 °F - 73.9 °F 87% 29.99 in 8.0 mi North - - 0.07 in Thunderstorm Unknown
3:05 PM 78.1 °F - 73.9 °F 87% 29.99 in - SSW 8.1 mph - 0.03 in Rain , Thunderstorm Light Thunderstorms and Rain
3:20 PM 77.0 °F - 73.0 °F 88% 29.98 in 5.0 mi South 8.1 mph - 0.05 in Rain , Thunderstorm Light Rain
3:53 PM 77.0 °F - 73.9 °F 90% 29.95 in 3.0 mi South 8.1 mph - 0.11 in Rain Light Rain
5:53 PM 80.1 °F 84.5 °F 73.9 °F 81% 29.95 in 10.0 mi SW 4.6 mph - 0.00 in Rain Light Rain
6:53 PM 82.0 °F 87.9 °F 73.9 °F 76% 29.95 in 10.0 mi SW 5.8 mph - 0.00 in   Mostly Cloudy
7:53 PM 82.0 °F 87.9 °F 73.9 °F 76% 29.94 in 10.0 mi South 5.8 mph - N/A   Mostly Cloudy
8:53 PM 81.0 °F 86.2 °F 73.9 °F 79% 29.97 in 10.0 mi SSW 3.5 mph - N/A   Clear
9:53 PM 81.0 °F 86.7 °F 75.0 °F 82% 30.00 in 9.0 mi Calm Calm - N/A   Clear
10:53 PM 80.1 °F 85.1 °F 75.0 °F 85% 30.01 in 9.0 mi South 3.5 mph - N/A   Clear
11:53 PM 80.1 °F 85.1 °F 75.0 °F 85% 30.02 in 10.0 mi SW 4.6 mph - N/A   Clear